GFSSW_850_spd_198.txt.gz
Wind_Speed
8 7 8 6 7 5 8 10 9 5 3 4 12 7 9 9 6 4 10 13 14 15 13 13 21 19 18 16 13 7 2 3 2 3 4 13 5 7 9 20 7 7 12 12 32
9 9 8 9 7 6 5 9 11 10 7 4 4 9 17 9 5 4 6 11 13 16 15 12 12 13 6 4 5 3 2 5 1 2 4 3 9 11 7 13 6 10 9 29 36
8 10 9 8 9 8 6 6 11 12 10 8 4 3 6 12 9 4 4 9 10 14 14 12 11 12 10 3 4 3 4 1 3 6 5 6 11 4 18 2 12 23 29 38 36
9 10 11 10 9 9 8 6 8 12 12 8 7 4 3 8 6 11 9 5 5 11 15 12 11 11 8 5 7 4 4 5 5 8 6 5 11 9 8 7 16 19 25 35 37
11 11 11 11 11 10 9 8 6 11 11 10 6 4 3 4 6 11 8 7 3 10 12 14 14 13 8 9 7 2 4 7 8 12 8 4 5 7 8 7 18 26 32 32 33
14 12 11 11 11 12 11 10 8 9 12 10 8 6 6 7 8 11 6 2 1 10 8 12 11 11 12 5 11 5 4 9 4 9 6 6 3 7 7 16 27 30 33 31 30
8 13 11 10 10 10 12 10 9 9 12 10 11 9 10 9 4 14 8 5 7 12 7 7 9 12 8 6 5 3 2 6 1 4 4 0 1 5 12 27 33 33 31 29 29
11 13 13 9 9 9 11 10 9 9 12 13 10 12 7 15 12 10 14 12 11 11 7 7 9 9 5 11 4 4 1 4 3 13 4 1 7 3 18 32 31 31 31 29 29
11 10 13 12 10 9 9 8 7 9 12 12 11 11 5 10 16 14 16 15 11 9 7 9 6 4 5 6 4 2 7 4 3 6 5 3 4 4 18 28 29 30 31 28 27
10 10 10 14 10 8 7 7 6 9 9 8 11 7 7 8 19 20 16 16 13 9 2 6 3 3 1 7 12 9 8 2 4 3 5 1 2 4 9 22 26 29 30 28 28
9 8 9 11 9 7 8 9 6 3 9 6 9 1 4 8 15 21 20 15 14 7 4 4 3 7 8 2 4 14 9 5 1 4 2 4 1 4 7 6 16 21 27 27 26
8 6 5 7 8 9 13 9 9 3 4 13 9 6 4 14 7 18 24 10 7 4 4 2 4 5 7 7 2 15 15 8 2 2 1 5 3 4 4 4 12 15 22 28 26
8 7 3 5 8 11 16 12 9 6 3 6 10 8 7 3 5 17 27 10 9 6 11 6 4 11 8 8 7 4 15 11 6 3 2 5 5 3 1 4 4 9 8 16 19
5 6 4 9 9 11 12 13 9 5 2 4 6 7 12 4 3 12 26 10 6 11 11 4 5 12 10 8 10 5 2 11 7 8 4 3 3 3 2 4 4 5 4 9 9
7 8 11 8 6 12 9 11 8 6 2 5 5 10 12 5 4 5 21 5 8 7 4 3 8 9 14 8 9 3 7 7 5 5 4 0 1 5 3 5 5 16 8 14 10
11 11 12 7 7 9 6 11 12 4 5 4 4 7 8 9 2 9 5 7 1 4 3 2 3 4 3 13 9 15 11 11 6 2 3 6 6 3 5 6 2 1 4 11 13
12 9 8 4 5 10 9 6 3 3 2 2 3 2 13 7 4 5 6 6 2 5 3 3 2 2 10 10 15 12 8 3 2 2 3 4 6 5 4 10 14 16 5 9 4
11 8 5 3 6 10 11 2 3 2 3 2 1 2 9 11 7 8 9 5 1 5 3 4 3 3 3 3 7 15 4 5 6 5 3 4 5 2 2 8 22 26 26 23 19
11 10 9 7 7 4 1 4 3 3 3 4 2 4 4 3 4 7 5 7 4 4 3 4 1 5 1 4 11 5 4 4 6 2 3 4 3 2 4 7 17 20 21 22 27
7 9 8 7 4 2 4 3 1 2 3 3 1 2 3 5 7 6 9 0 6 7 5 5 4 2 4 4 6 4 6 3 2 3 2 2 1 4 4 7 10 15 20 23 23
4 3 3 4 1 5 3 2 2 4 3 3 2 2 4 3 3 4 6 2 2 3 4 4 2 1 1 3 6 3 2 4 4 4 4 4 4 4 7 7 12 18 23 20 16
2 2 2 3 5 3 2 0 2 5 3 2 1 3 2 2 4 3 3 3 2 1 4 2 3 2 5 4 3 3 5 4 4 3 0 2 2 4 8 11 20 21 20 21 18
3 2 4 1 3 1 3 0 3 3 2 2 4 4 2 2 4 3 4 3 2 2 4 3 1 4 2 5 4 5 2 3 5 3 3 4 3 4 7 9 14 20 22 20 17
2 2 5 6 5 5 2 3 2 3 4 3 3 1 3 4 5 4 3 4 2 4 7 3 3 4 6 4 6 6 5 4 4 3 3 3 6 5 6 7 14 22 20 18 15
3 1 2 0 5 3 3 1 4 5 7 14 5 5 1 3 3 4 3 2 5 6 4 3 3 2 4 3 2 11 13 8 3 5 5 5 13 7 5 9 17 18 16 13 12
3 5 6 4 2 4 5 2 2 5 6 5 5 9 9 4 3 3 2 3 3 5 3 2 3 2 5 7 3 3 6 8 3 4 5 8 5 4 14 16 19 15 13 12 12
11 13 3 4 3 4 2 3 3 3 7 9 4 4 10 6 10 11 14 11 6 3 2 2 3 2 0 4 3 2 6 6 4 3 5 4 4 10 7 13 16 15 14 13 12

GFSSW_850_spd_201.txt.gz
Wind_Speed
9 8 8 8 6 6 10 10 9 7 7 10 12 10 10 9 7 8 12 13 15 11 9 17 19 19 17 6 3 1 3 3 2 2 5 7 4 8 5 15 5 7 7 10 28
10 10 8 8 9 6 7 10 11 10 9 6 7 14 12 11 9 8 11 14 16 14 13 11 12 13 9 5 4 4 3 5 2 3 4 5 5 13 6 10 4 8 7 22 30
10 11 10 9 7 9 7 6 10 12 11 9 5 5 7 13 7 6 10 12 13 13 11 10 12 12 7 8 6 5 4 3 3 5 7 4 7 8 14 3 10 18 23 33 33
14 11 12 11 9 7 9 7 7 11 12 10 9 4 4 7 5 8 10 10 10 12 10 10 12 10 6 6 7 3 4 2 7 5 8 2 4 5 18 4 15 19 22 35 35
17 14 12 12 11 9 8 9 8 8 12 10 8 4 3 4 5 11 9 8 9 7 11 13 12 7 6 6 8 6 2 4 8 11 8 8 9 7 12 2 10 23 32 34 33
11 16 13 12 13 11 9 8 9 8 12 12 10 6 6 4 7 9 9 5 4 8 9 10 7 9 5 4 13 11 7 10 9 8 6 3 3 6 12 7 17 26 34 33 33
8 8 15 13 13 11 9 9 9 9 11 11 10 10 10 10 4 11 14 5 5 9 9 11 9 9 7 3 6 6 0 3 1 4 2 3 2 6 8 17 24 29 32 31 32
12 11 12 13 11 11 9 8 8 10 11 12 8 11 6 15 10 12 8 7 8 10 9 9 11 9 4 9 3 4 3 4 1 4 1 3 6 3 10 24 27 30 31 30 29
15 12 13 14 11 9 9 7 8 10 10 11 10 9 5 9 16 14 13 10 11 11 12 11 12 5 6 6 2 2 6 9 2 3 2 2 5 4 11 23 25 29 30 28 27
14 11 11 13 13 9 7 6 8 8 7 7 9 7 7 6 13 18 16 16 6 9 10 6 4 2 2 7 11 5 9 1 7 3 3 3 4 3 2 17 23 26 27 28 27
11 11 12 11 12 9 7 8 5 3 9 6 5 3 2 8 10 17 20 17 13 4 3 5 4 7 8 6 2 10 9 12 3 1 2 2 4 5 4 9 14 21 25 27 28
9 10 9 10 11 9 11 9 7 2 4 16 6 8 2 7 3 15 21 14 11 7 4 3 4 5 4 5 3 8 13 8 3 3 2 3 4 5 4 4 18 22 24 27 24
8 10 6 9 10 13 15 12 8 2 2 4 9 7 8 8 4 12 21 8 5 8 8 5 5 9 7 4 4 5 12 12 7 3 3 2 4 4 2 2 4 9 12 21 21
8 10 7 8 9 11 14 13 5 6 2 3 5 5 9 3 4 11 24 11 5 9 8 3 7 9 7 11 8 3 3 5 7 9 6 2 4 4 1 4 6 9 11 10 11
9 8 11 11 7 11 9 12 7 3 1 3 6 7 7 8 2 7 21 12 8 6 4 5 10 10 10 9 10 2 5 7 3 4 2 2 2 3 0 3 5 14 14 18 18
10 13 11 7 8 9 9 11 11 3 5 4 4 8 7 9 2 5 8 4 3 3 3 2 1 3 2 9 8 9 8 8 5 3 4 5 8 3 7 5 4 15 15 16 20
12 12 7 7 7 8 7 14 4 4 3 3 3 6 11 6 3 6 4 6 4 6 4 2 1 1 1 8 13 6 8 2 2 3 3 5 7 2 5 6 9 13 20 15 20
11 8 5 4 6 10 5 2 2 2 2 2 1 1 6 5 4 3 9 5 1 1 3 5 4 4 1 2 6 11 5 4 6 5 3 2 5 3 3 10 25 19 13 2 10
10 8 9 7 6 8 3 3 1 2 2 2 2 4 4 3 2 4 3 4 4 3 3 3 2 3 2 1 10 4 4 2 4 3 3 3 2 2 4 7 18 18 17 13 18
7 9 7 5 4 2 3 1 1 2 2 1 1 1 5 10 7 11 9 1 5 3 2 2 3 2 4 3 2 3 5 3 1 4 2 3 4 3 6 8 13 18 23 29 25
4 4 5 2 2 4 3 2 3 3 5 2 1 0 1 6 6 4 8 1 2 6 2 4 2 1 4 1 4 4 3 4 3 2 4 4 4 2 6 11 17 25 24 27 25
2 2 3 3 4 2 2 2 2 2 3 1 2 1 2 2 3 4 5 2 1 7 7 5 3 2 2 3 2 2 4 4 3 3 1 1 2 4 7 11 20 23 27 26 24
2 3 3 1 3 1 3 2 2 4 3 2 1 2 0 1 4 3 4 1 7 2 5 5 3 2 3 3 2 3 3 3 4 3 1 3 2 6 16 18 20 27 28 23 19
2 2 3 5 5 6 3 2 3 4 0 2 3 2 1 3 4 4 4 2 4 3 3 2 3 4 4 3 5 5 4 4 3 3 1 1 5 1 6 11 18 24 24 20 15
1 1 3 0 4 3 1 3 2 4 6 12 2 4 1 3 3 3 3 3 4 2 3 1 3 2 2 3 1 2 5 5 3 3 3 6 13 8 6 11 18 23 19 16 13
3 5 5 4 2 2 4 3 2 3 4 4 5 9 8 4 2 3 1 1 2 2 2 2 2 2 5 7 2 1 6 13 7 5 4 9 3 2 15 19 20 17 15 13 11
3 10 3 3 2 4 1 3 2 2 7 7 3 3 11 6 7 14 12 9 4 2 3 3 4 2 2 4 4 4 6 7 4 4 8 6 5 11 9 15 18 15 13 11 8

GFSSW_850_spd_207.txt.gz
Wind_Speed
10 11 10 9 7 5 7 9 10 12 9 8 10 10 10 8 10 11 11 8 9 10 6 10 17 17 13 5 2 2 3 0 2 1 4 8 4 1 1 7 6 5 4 6 25
12 10 10 10 9 8 6 8 9 11 12 8 9 9 8 7 7 8 9 8 13 9 9 6 11 11 5 3 3 3 2 5 1 0 1 7 1 3 2 4 4 6 6 11 26
12 12 9 9 10 9 8 7 7 9 12 10 6 6 8 5 6 5 11 11 9 12 8 6 18 8 8 9 7 4 4 3 1 1 4 6 3 2 5 2 9 10 12 21 28
12 12 12 9 9 10 9 8 8 6 10 11 7 4 4 7 5 2 8 11 11 11 10 10 11 13 8 6 12 5 5 4 2 2 3 3 6 2 8 3 5 8 11 22 31
12 11 13 11 8 9 9 8 8 7 6 9 7 5 2 5 3 1 1 7 10 11 12 13 16 9 5 10 10 5 6 7 6 3 4 4 3 5 8 10 5 11 14 22 29
13 13 14 12 10 8 8 8 8 8 6 7 8 6 4 3 4 4 1 5 8 11 13 14 12 9 8 6 15 11 12 9 5 2 3 2 3 1 4 10 7 12 16 21 26
12 11 6 8 10 8 7 8 9 8 6 5 7 7 7 10 2 5 5 4 5 8 10 11 8 10 7 3 6 16 4 3 4 4 2 2 3 4 6 6 10 15 18 21 22
14 9 7 7 10 10 6 8 8 8 6 5 6 6 5 9 13 3 6 8 3 4 7 9 12 10 7 7 4 3 5 6 2 6 2 5 7 2 4 9 13 16 18 20 22
14 11 10 8 8 8 5 7 8 7 4 4 5 4 4 6 9 13 6 3 5 4 6 9 11 5 8 5 3 2 5 6 4 1 3 3 5 1 3 10 12 16 19 21 21
11 12 12 9 7 8 4 5 5 4 3 4 4 3 6 3 5 11 9 7 4 9 7 6 4 3 3 4 7 5 3 3 5 6 3 4 6 2 1 7 11 14 18 21 19
11 10 11 7 7 8 5 3 4 3 7 3 4 2 4 4 4 7 14 11 5 5 3 4 2 7 4 4 3 4 4 5 1 1 3 9 6 6 3 4 9 14 17 17 19
11 9 7 6 7 7 7 5 3 1 2 10 4 5 2 3 1 6 16 9 5 3 3 3 7 4 3 3 4 3 2 2 0 0 3 2 6 4 4 4 5 10 14 14 14
10 7 6 5 7 10 10 10 4 2 1 2 13 4 4 7 2 2 14 11 3 5 5 4 1 9 6 3 4 5 3 5 1 2 2 4 5 4 3 3 6 4 5 8 10
9 7 7 6 6 9 7 13 4 1 4 3 4 5 8 6 2 9 8 8 4 9 4 5 5 7 5 6 5 2 7 5 7 5 5 4 4 5 5 4 6 8 11 11 11
8 10 7 6 3 7 4 13 3 1 3 2 3 5 9 5 2 1 11 14 5 5 5 5 7 7 5 4 6 2 3 5 4 3 2 3 3 2 8 5 4 8 16 16 16
9 9 7 4 3 5 8 11 3 5 4 2 4 3 7 7 1 2 4 5 3 3 2 3 1 0 4 3 6 7 5 6 5 3 3 7 6 4 5 7 6 10 20 23 24
10 12 7 3 3 7 11 10 4 4 3 2 1 5 6 4 2 1 5 6 4 5 5 3 2 3 1 4 3 9 5 1 2 3 3 4 8 1 2 7 16 20 23 29 29
13 9 5 3 7 8 11 3 4 3 4 2 1 3 5 6 4 3 4 8 1 1 4 5 4 6 3 2 3 9 7 3 5 4 2 4 6 2 1 14 23 31 35 35 36
9 7 5 5 4 3 6 3 6 5 3 1 1 3 3 3 2 3 4 4 6 6 3 4 2 1 0 1 1 5 5 2 6 2 2 3 2 3 3 14 19 24 29 32 29
8 7 6 3 6 4 3 1 1 2 3 3 5 3 5 7 6 6 6 3 6 4 2 2 2 2 1 2 8 2 10 4 1 5 4 3 3 4 6 15 13 16 19 24 22
7 3 4 2 4 1 2 1 2 3 6 4 3 1 4 5 5 5 4 0 3 6 6 3 1 0 1 2 4 2 3 4 4 2 4 3 4 0 4 18 17 17 21 23 21
3 2 6 5 1 2 2 1 3 3 3 0 2 2 3 3 6 3 8 3 6 8 8 3 3 3 2 3 2 2 5 3 4 4 3 1 3 6 4 16 21 20 24 24 23
3 3 4 6 2 0 1 2 1 2 1 1 1 1 2 2 4 4 5 1 7 7 5 5 1 3 1 2 1 3 3 3 3 2 4 4 3 5 12 18 20 27 27 26 26
3 2 2 2 3 5 3 2 2 1 0 1 2 3 2 2 1 3 4 3 5 4 9 4 2 3 3 2 3 3 6 9 4 2 3 4 4 3 6 15 20 23 29 32 29
1 0 3 1 2 2 1 3 2 1 3 4 0 4 3 2 2 2 3 2 1 5 4 3 3 3 2 3 1 2 6 12 9 2 5 3 7 9 9 14 24 30 33 31 28
3 4 5 3 2 3 3 2 3 1 1 2 3 5 3 2 2 3 2 5 4 1 3 0 3 2 4 3 3 2 6 5 6 3 5 2 2 5 14 17 24 31 33 31 27
4 6 4 2 1 3 3 4 3 5 2 2 4 2 6 4 6 5 4 7 3 5 3 3 5 2 3 3 3 5 11 13 7 6 6 5 6 15 9 20 27 30 32 30 25

GFSSW_850_spd_210.txt.gz
Wind_Speed
9 8 8 10 9 7 7 9 10 11 10 10 13 10 10 10 9 8 10 10 16 11 19 21 15 15 11 4 1 4 3 3 2 1 3 4 2 2 2 5 4 3 3 4 22
7 8 8 8 11 9 7 8 10 11 11 10 9 10 10 11 7 7 10 12 14 11 11 14 16 17 16 3 3 4 2 2 2 1 2 4 2 1 3 5 5 5 5 11 25
9 12 10 7 9 11 10 9 8 9 10 10 9 7 8 7 6 6 11 10 10 13 9 9 15 13 19 9 6 3 4 2 3 1 3 5 2 1 4 5 5 6 12 19 27
10 11 8 12 7 10 11 10 10 9 8 9 9 7 6 7 5 3 10 11 12 11 12 9 15 10 12 13 10 8 5 4 5 1 1 3 5 2 6 1 2 5 11 21 28
11 10 10 10 11 7 10 10 10 10 7 6 7 7 6 7 5 2 3 8 11 11 12 13 13 11 16 8 10 14 12 8 4 2 1 3 4 4 7 7 6 5 11 19 24
11 11 12 11 13 9 8 10 9 8 7 5 7 8 6 5 3 3 1 5 8 11 13 14 8 6 5 4 13 13 21 11 6 3 1 3 4 3 2 4 6 6 11 15 22
10 11 7 4 9 7 7 9 8 8 7 5 6 7 7 6 2 3 4 2 9 10 12 15 8 8 8 5 7 10 13 10 10 6 5 2 7 4 3 4 5 8 10 13 16
9 10 7 5 6 9 7 8 8 7 6 4 5 6 5 11 11 2 7 6 6 9 10 12 11 10 4 9 5 3 6 15 11 8 8 6 10 5 4 4 7 8 9 11 15
8 9 8 7 6 6 7 7 7 6 5 4 5 5 4 6 9 13 7 6 6 6 8 9 12 6 7 6 4 3 4 16 19 8 5 10 13 4 5 4 9 9 9 10 12
8 8 9 8 7 6 5 5 4 4 5 5 5 4 5 4 7 12 9 7 6 8 8 7 5 4 4 8 7 4 4 11 20 9 6 13 17 7 4 4 9 9 8 9 10
9 7 7 8 5 6 6 2 2 2 8 4 5 2 2 5 2 7 12 8 9 7 6 4 3 6 9 13 2 6 6 3 1 2 5 15 15 13 8 6 7 9 9 10 10
10 7 5 6 6 7 8 5 5 2 3 7 3 8 2 6 2 6 16 9 6 7 5 2 5 2 5 5 4 1 5 7 3 4 6 7 15 10 7 8 8 7 8 10 12
8 7 6 6 8 8 10 9 5 3 1 3 9 3 3 7 3 5 15 8 5 9 7 9 1 10 3 5 7 5 6 4 4 3 1 1 8 10 12 9 3 2 5 10 14
10 7 7 6 5 6 8 11 5 1 1 3 3 4 7 6 4 7 12 10 5 12 7 8 9 6 8 11 5 3 4 5 8 6 5 7 4 13 18 10 5 3 5 9 13
9 8 7 6 3 6 5 13 4 1 2 2 3 2 7 5 6 4 9 11 10 9 7 6 6 9 9 10 11 2 4 5 5 6 1 5 4 5 9 14 9 7 8 10 12
10 10 5 4 1 6 9 11 4 2 3 1 3 3 7 8 1 5 4 5 1 4 3 5 1 5 8 5 13 12 7 6 4 2 5 9 8 3 7 15 10 10 11 14 16
11 10 8 3 4 7 11 7 2 4 2 3 1 4 8 7 5 3 7 8 4 4 5 6 4 2 1 8 6 5 8 2 3 3 5 0 9 9 3 5 15 19 19 19 20
14 9 6 3 6 8 11 1 3 1 3 2 0 1 7 5 4 5 7 8 5 6 4 8 5 9 5 4 6 9 5 4 5 5 3 2 6 2 4 6 16 18 21 23 24
11 7 5 5 5 6 5 4 2 4 2 3 3 4 5 3 1 4 6 4 6 6 4 4 3 0 3 1 2 6 6 2 4 2 2 4 2 3 8 13 20 23 25 25 24
8 7 6 3 5 3 1 0 2 3 2 1 4 2 8 8 7 6 8 3 7 11 2 3 3 2 3 1 3 4 13 3 1 6 5 5 5 5 12 17 17 23 25 21 22
6 3 5 2 6 1 0 1 2 4 6 4 3 3 3 5 6 4 5 1 5 8 10 3 1 3 1 5 6 4 4 2 2 1 3 2 3 2 14 18 21 25 22 21 22
2 2 6 5 1 2 1 1 2 2 3 1 1 2 3 3 6 5 7 2 7 12 9 3 1 2 3 1 2 1 2 4 5 5 2 1 2 1 6 20 26 24 20 22 21
3 3 3 6 2 1 1 2 2 0 1 1 1 1 2 2 4 4 5 2 4 5 8 8 3 4 3 1 1 3 2 4 2 1 6 4 1 4 6 20 23 25 25 26 27
3 2 2 4 2 3 4 2 2 3 2 2 1 2 2 4 1 2 5 3 2 6 5 5 2 3 1 3 5 4 5 6 4 3 4 5 2 4 8 16 22 24 27 31 27
3 2 3 2 2 3 2 2 1 2 1 2 2 1 3 3 3 3 2 3 2 6 9 5 3 2 1 2 3 4 9 10 7 6 8 1 7 10 16 16 22 24 24 26 24
3 5 4 3 1 3 1 3 3 2 2 1 1 4 5 2 1 4 2 4 3 3 4 4 3 2 0 1 3 2 6 14 14 8 7 6 7 4 19 19 23 25 26 25 24
5 6 4 1 1 1 1 2 1 3 2 1 2 1 6 4 5 5 2 2 1 3 3 4 6 3 4 0 3 5 16 16 12 11 12 11 4 18 16 25 30 31 30 29 28

GFSSW_850_spd_216.txt.gz
Wind_Speed
9 9 7 8 9 11 12 11 11 13 13 14 15 13 14 14 14 13 13 13 14 16 12 22 22 12 6 8 8 4 3 4 5 5 5 4 4 3 3 8 7 6 6 7 21
9 8 9 11 10 10 12 13 11 11 11 12 14 14 12 16 13 17 16 16 15 14 14 14 16 10 8 8 7 3 3 4 8 8 7 5 4 6 4 10 11 12 10 12 24
11 10 10 12 11 11 12 13 13 12 12 11 11 14 11 10 12 14 17 18 15 16 14 12 14 15 15 14 11 4 3 5 5 10 8 2 7 2 5 6 14 20 16 14 25
14 12 10 11 11 11 12 13 14 13 12 12 10 11 11 7 7 4 12 15 17 15 14 15 13 17 10 13 16 4 6 3 5 3 3 5 4 3 3 6 7 8 15 17 24
15 11 9 11 12 13 12 11 13 14 12 12 10 10 10 11 11 12 4 11 17 15 15 14 16 22 17 15 18 13 10 9 3 1 2 4 4 4 2 6 9 14 12 16 21
9 9 11 11 13 13 10 12 12 11 13 12 10 10 10 16 10 13 13 5 14 14 14 14 7 13 19 21 20 18 16 12 10 7 2 3 5 1 8 7 11 10 10 15 20
8 9 10 10 10 9 7 11 11 12 9 11 10 10 13 15 6 9 11 13 9 10 12 15 15 9 9 4 18 20 11 13 15 12 3 1 5 7 9 8 11 12 13 14 17
9 10 10 9 8 7 9 13 12 11 10 8 9 8 11 10 16 9 6 10 17 15 14 14 11 15 7 12 2 5 1 9 10 13 6 3 5 10 10 8 11 14 15 15 17
11 10 9 8 7 8 11 11 11 11 9 6 6 6 13 6 15 17 10 6 13 19 16 12 17 8 11 4 5 7 9 7 2 6 6 7 5 7 10 6 4 16 17 14 16
13 11 8 6 8 9 9 8 9 8 5 4 7 5 15 8 7 13 14 9 11 9 12 13 8 3 6 8 8 14 18 5 8 2 9 9 10 9 13 6 3 8 17 15 17
12 11 7 6 8 8 6 7 8 4 6 9 1 12 10 5 8 8 11 9 8 11 6 10 6 8 16 17 7 7 10 7 3 5 3 13 13 15 15 8 5 6 16 16 15
10 9 6 6 7 6 5 4 5 5 8 14 12 11 13 8 5 8 12 7 10 9 11 3 10 10 1 8 6 9 15 7 5 5 4 11 15 11 14 10 12 10 15 19 17
10 8 5 4 3 4 3 5 7 6 6 5 11 7 6 5 7 8 14 8 8 12 10 5 6 1 8 8 9 6 10 10 6 6 1 2 8 12 11 11 7 5 3 20 26
9 5 4 1 2 4 3 6 5 6 3 4 5 3 5 4 5 5 8 8 4 6 8 7 5 7 7 4 1 7 9 9 11 9 4 5 2 13 15 9 9 9 4 16 24
8 6 4 4 0 3 7 4 2 3 4 3 1 3 2 7 6 5 6 10 6 4 4 1 8 4 9 3 2 2 8 7 6 4 2 5 1 6 18 17 10 14 14 20 20
8 7 5 1 3 4 1 3 1 2 4 3 4 3 3 8 5 2 4 5 2 4 2 1 0 4 1 8 4 4 10 10 6 3 3 6 6 4 3 6 12 15 20 21 15
10 7 4 3 2 1 5 3 0 1 1 4 4 6 6 5 5 5 6 6 3 3 4 5 4 2 3 8 10 7 5 2 2 2 3 1 6 6 5 8 15 18 21 19 16
9 7 3 2 4 4 4 3 2 0 3 3 2 8 3 2 4 3 6 6 1 1 5 5 3 6 6 1 4 11 6 2 2 2 2 4 5 2 4 14 23 21 22 21 19
9 6 2 2 2 4 3 1 3 3 2 5 2 2 1 4 2 4 1 3 6 6 2 5 4 5 8 5 3 3 4 1 3 2 3 3 2 2 7 11 19 22 21 21 18
6 4 3 2 1 3 3 3 2 2 2 2 3 1 2 2 3 2 1 3 2 11 8 3 4 3 2 1 4 2 8 4 2 4 3 4 3 4 7 10 11 15 20 22 24
4 1 1 2 0 3 1 3 3 2 3 3 3 3 3 3 1 2 3 2 4 3 12 5 2 2 2 2 3 4 3 3 2 1 2 3 2 4 6 14 13 16 22 25 26
2 2 2 3 2 2 0 2 4 1 2 2 3 4 1 3 2 3 4 3 6 8 4 1 1 4 2 2 4 3 1 5 2 2 2 3 3 5 4 16 21 21 23 25 25
1 2 2 3 1 1 0 3 2 2 2 2 2 2 3 2 3 5 3 1 2 4 4 4 2 3 1 1 3 2 2 3 3 3 4 3 2 2 3 16 21 24 26 26 29
1 1 1 3 2 2 1 2 2 4 3 0 3 3 1 4 5 3 3 2 3 4 2 1 1 2 1 3 5 5 9 9 4 3 3 4 2 4 6 10 20 25 29 30 31
1 1 2 1 2 3 2 1 2 2 3 2 3 5 4 3 2 4 3 2 1 3 1 2 2 3 4 3 2 4 10 14 13 11 6 5 6 5 12 12 25 29 28 31 30
2 3 2 2 2 4 3 3 3 1 1 3 3 4 6 3 3 4 3 3 2 3 1 2 2 2 1 2 1 2 8 12 11 14 11 14 11 3 13 18 23 27 28 33 35
4 4 2 3 2 1 3 2 3 6 2 1 2 4 0 2 1 3 5 9 6 2 3 4 2 1 3 3 2 3 9 12 11 6 12 10 10 5 4 14 26 29 32 34 38

GFSSW_850_spd_219.txt.gz
Wind_Speed
7 7 8 9 9 9 10 11 11 10 10 11 13 13 14 15 17 17 16 17 15 16 15 16 17 16 11 8 8 6 2 3 2 7 4 13 2 4 8 15 10 5 7 6 38
6 7 8 10 12 11 10 12 12 12 10 10 12 13 13 14 19 21 21 17 16 15 14 14 13 13 8 3 4 4 2 3 0 2 4 7 1 4 5 14 7 14 13 20 42
7 8 9 9 12 12 10 11 12 14 13 12 11 12 11 10 15 19 20 19 15 17 17 15 13 13 8 9 6 4 4 3 3 7 7 3 3 2 6 2 11 18 21 28 37
12 13 6 9 11 13 13 11 11 10 12 14 14 13 11 8 7 4 11 16 18 16 17 15 13 9 8 7 18 4 8 3 3 4 3 2 3 1 5 6 6 14 17 31 35
10 10 5 9 11 14 15 11 10 12 12 11 11 14 12 10 16 13 12 7 17 17 19 17 15 14 7 12 13 10 8 6 6 3 2 2 4 3 11 11 12 19 17 26 33
9 7 7 9 10 13 12 9 10 12 12 11 10 10 12 11 12 17 18 12 13 18 20 17 8 15 7 10 19 8 17 15 11 8 4 0 3 1 15 18 19 17 16 24 30
9 8 8 10 9 10 10 10 11 12 12 10 11 9 12 22 8 10 15 13 14 15 22 19 17 11 9 7 21 16 9 14 10 11 4 4 4 3 19 16 18 14 16 24 26
12 8 9 11 9 9 10 13 12 11 12 10 9 10 11 9 18 18 12 12 14 14 15 20 17 17 9 6 7 8 4 14 12 10 7 8 5 5 17 23 22 19 18 24 25
12 11 8 11 9 9 11 13 10 11 10 8 9 7 10 5 13 17 22 16 11 17 16 12 11 9 10 5 10 8 12 12 7 18 6 6 4 4 16 18 24 27 23 22 22
11 11 8 10 8 8 11 11 9 12 5 6 9 7 9 8 10 13 18 19 13 12 11 9 3 5 7 9 13 21 16 14 8 4 6 7 7 3 13 11 16 30 26 23 24
10 9 8 9 7 7 10 10 7 4 5 8 5 10 16 13 12 14 16 16 14 12 8 6 5 11 11 21 7 19 17 13 4 0 5 4 6 6 8 8 8 24 28 26 19
9 7 7 7 5 5 5 5 7 8 10 13 17 18 18 12 9 11 10 9 7 9 6 3 8 12 11 9 14 7 22 17 2 3 3 3 3 2 11 11 10 12 24 25 25
7 7 5 3 2 4 4 5 9 9 5 10 8 10 9 9 5 10 10 9 4 5 10 9 4 6 13 11 18 15 14 22 7 5 3 4 3 6 6 10 11 11 23 25 29
8 5 3 2 1 4 4 7 7 5 3 5 1 2 6 5 5 5 5 7 4 4 5 6 10 8 8 18 8 11 11 14 12 11 9 4 6 7 12 9 8 14 19 30 31
8 7 5 2 1 2 5 7 1 2 5 4 2 5 5 5 9 1 7 11 3 4 3 2 10 6 3 9 6 3 14 15 10 6 6 9 3 4 12 18 7 14 26 27 25
10 8 6 2 3 4 1 2 1 5 4 6 6 6 3 4 4 7 3 7 3 3 1 1 4 9 10 7 6 6 15 10 5 4 4 7 7 3 6 23 8 16 24 27 24
10 7 3 4 1 2 3 2 4 4 4 8 4 7 8 4 3 3 5 1 2 2 0 2 3 2 13 8 4 4 5 3 3 2 3 8 6 3 4 2 15 19 22 23 20
9 6 3 4 4 3 0 4 5 4 4 4 4 7 3 5 3 2 6 3 2 1 2 2 0 4 3 5 6 7 2 2 4 3 4 1 4 2 1 16 20 22 25 23 20
8 5 3 3 1 0 2 4 6 4 3 5 6 3 5 5 2 3 1 2 3 2 2 4 3 1 4 3 2 7 2 2 4 3 4 4 1 3 7 9 17 21 21 19 18
8 5 4 2 1 1 3 3 0 1 2 2 2 2 3 5 4 3 2 3 2 6 7 3 2 1 2 2 5 2 10 2 1 2 2 3 3 3 7 10 9 13 20 20 19
8 2 0 1 1 1 2 1 3 1 2 2 2 3 3 4 0 3 3 4 4 3 10 2 3 1 2 3 1 2 2 3 4 1 4 4 4 1 5 13 15 18 23 24 25
4 3 2 0 4 2 0 0 3 2 1 2 2 4 3 4 3 2 3 2 10 3 3 4 2 2 2 2 3 1 1 3 4 3 1 1 2 2 4 16 19 20 24 25 27
3 2 2 0 2 1 1 3 3 3 3 1 2 1 1 1 3 3 4 3 8 6 3 3 1 3 3 3 2 2 3 2 3 3 3 4 2 2 10 13 18 25 27 28 29
3 2 1 2 2 3 1 2 2 5 3 2 2 3 2 3 4 3 3 4 6 4 11 2 1 2 3 2 3 4 5 5 3 3 3 3 3 2 6 10 17 22 28 31 32
3 2 3 1 2 3 1 1 2 2 2 1 2 2 2 3 2 4 2 2 4 6 6 1 2 1 2 2 4 5 5 5 3 4 5 4 4 5 12 13 26 30 28 30 30
4 4 3 2 2 4 2 3 5 4 1 1 2 4 3 3 1 2 4 3 1 2 4 2 2 1 4 5 5 4 7 6 8 5 5 8 5 5 7 15 21 26 28 30 32
7 4 2 2 1 3 3 4 2 4 2 2 0 3 3 2 4 6 5 8 5 4 1 1 2 2 3 4 4 5 7 10 8 5 10 8 9 3 4 13 26 30 31 32 35